Location: Eurasberg
(48.3353°N, 11.0839°E)
Time: 11:14:30
(UTC+00:00)

Cosmos 1743 Rocket - Pass Details

Date: 18 January 2026
Orbit: 597 x 626 km, 82.6° (Epoch: 11 February)

Event Time Altitude Azimuth Distance (km) Brightness Sun altitude
Rises 04:46:52 0° 186° (S) 2,896 7.0 -21.6°
Reaches altitude 10° 04:49:06 10° 186° (S) 1,992 6.2 -21.2°
Maximum altitude 04:53:31 86° 97° (E) 631 3.5 -20.5°
Drops below altitude 10° 04:57:57 10° 10° (N) 1,996 6.2 -19.8°
Sets 05:00:11 0° 10° (N) 2,902 7.0 -19.4°
